Penn Yan, NY

2:44 PM EDT on October 20, 2017 (GMT -0400)
Penn Yan

Weather History for KPEO - May, 2013

Change the Weather History Date:

Wednesday, May 15, 2013

  Actual Average (KITH) Record (KITH)
Temperature  
Mean Temperature 64 °F -  
Max Temperature 84 °F 66 °F 87 °F (1940)
Min Temperature 45 °F 43 °F 30 °F (1971)
Degree Days  
Heating Degree Days 2    
Growing Degree Days 14 (Base 50)    
Moisture  
Dew Point 44 °F    
Average Humidity 55    
Maximum Humidity 79    
Minimum Humidity 32    
Precipitation  
Precipitation 0.02 in - - ()
Sea Level Pressure  
Sea Level Pressure 29.75 in    
Wind  
Wind Speed 7 mph (SW)    
Max Wind Speed 18 mph    
Max Gust Speed 32 mph    
Visibility 10 miles    
Events Rain    
Averages and records for this station are not official NWS values.
T = Trace of Precipitation, MM = Missing Value Source: NWS Daily Summary

Daily Weather History Graph

Daily Weather History Graph

Search for Another Location

Airport or City:

Trip Planner

Search our weather history database for the weather conditions in past years. The results will help you decide how hot, cold, wet, or windy it might be!

Date:

Astronomy

May. 15, 2013 Rise Set
Actual Time 5:45 AM EDT 8:23 PM EDT
Civil Twilight 5:13 AM EDT 8:56 PM EDT
Nautical Twilight 4:32 AM EDT 9:37 PM EDT
Astronomical Twilight 3:46 AM EDT 10:23 PM EDT
Moon 10:20 AM EDT (5/15) 12:08 AM EDT (5/15)
Length of Visible Light 15h 43m
Length of Day
14h 38m
Waxing Crescent, 26% of the Moon is Illuminated
May 15
Waxing Crescent
May 18
First Quarter
May 25
Full
May 31
Last Quarter
Jun 8
New

Hourly Weather History & Observations

Time (EDT) Temp. Windchill Dew Point Humidity Pressure Visibility Wind Dir Wind Speed Gust Speed Precip Events Conditions
12:53 AM 46.0 °F 44.8 °F 37.9 °F 73% 29.98 in 10.0 mi SW 3.5 mph - N/A   Overcast
1:53 AM 45.0 °F - 37.9 °F 76% 29.94 in 10.0 mi Calm Calm - N/A   Overcast
2:53 AM 46.9 °F - 37.9 °F 71% 29.93 in 10.0 mi South 5.8 mph - N/A   Overcast
3:53 AM 46.0 °F 44.8 °F 39.9 °F 79% 29.92 in 10.0 mi SE 3.5 mph - N/A   Overcast
4:53 AM 46.0 °F - 37.9 °F 73% 29.88 in 10.0 mi Calm Calm - N/A   Overcast
5:53 AM 46.9 °F - 37.0 °F 68% 29.86 in 10.0 mi SSE 3.5 mph - N/A   Mostly Cloudy
6:53 AM 51.1 °F - 37.0 °F 59% 29.84 in 10.0 mi South 6.9 mph - N/A   Mostly Cloudy
7:53 AM 52.0 °F - 39.0 °F 61% 29.82 in 10.0 mi SSW 10.4 mph 17.3 mph N/A   Clear
8:53 AM 53.1 °F - 39.0 °F 59% 29.80 in 10.0 mi South 9.2 mph 21.9 mph 0.00 in Rain Light Rain
9:53 AM 52.0 °F - 42.1 °F 69% 29.76 in 10.0 mi South 8.1 mph - 0.00 in Rain Light Rain
10:53 AM 57.9 °F - 45.0 °F 62% 29.71 in 10.0 mi South 10.4 mph 18.4 mph 0.00 in   Mostly Cloudy
11:53 AM 63.0 °F - 46.9 °F 56% 29.67 in 10.0 mi South 16.1 mph 26.5 mph 0.02 in   Mostly Cloudy
12:53 PM 69.1 °F - 48.9 °F 49% 29.62 in 10.0 mi South 16.1 mph 25.3 mph N/A   Clear
1:53 PM 73.9 °F - 51.1 °F 45% 29.57 in 10.0 mi SSW 17.3 mph 28.8 mph N/A   Clear
2:53 PM 80.1 °F - 55.9 °F 43% 29.54 in 10.0 mi SW 15.0 mph 24.2 mph N/A   Mostly Cloudy
3:53 PM 82.9 °F - 53.1 °F 36% 29.55 in 10.0 mi West 16.1 mph 32.2 mph N/A   Mostly Cloudy
4:53 PM 80.1 °F - 48.9 °F 34% 29.59 in 10.0 mi West 18.4 mph 31.1 mph N/A   Clear
5:53 PM 77.0 °F - 45.0 °F 32% 29.63 in 10.0 mi West 11.5 mph 28.8 mph N/A   Clear
6:53 PM 75.0 °F - 46.0 °F 36% 29.66 in 10.0 mi West 12.7 mph 25.3 mph N/A   Clear
7:53 PM 71.1 °F - 46.0 °F 41% 29.69 in 10.0 mi West 10.4 mph 21.9 mph N/A   Clear
8:53 PM 66.9 °F - 46.9 °F 49% 29.73 in 10.0 mi Calm Calm - N/A   Clear
9:53 PM 63.0 °F - 46.0 °F 54% 29.76 in 10.0 mi West 3.5 mph - N/A   Clear
10:53 PM 64.9 °F - 41.0 °F 42% 29.76 in 10.0 mi Variable 3.5 mph - N/A   Clear
11:53 PM 59.0 °F - 45.0 °F 60% 29.75 in 10.0 mi West 4.6 mph - N/A   Clear